Home   Weather   Lahti   Past weeks
Flag for Finland

Past Weather in Lahti, Finland — Yesterday and Last 2 Weeks

Now
61 °F

Clear.


Feels Like: 61 °F
Forecast: 77 / 53 °F
Wind: 5 mph from Southeast

Location: Utti

Current Time: Jul 21, 2019 at 1:10:22 am

Latest Report: Jul 21, 2019 at 12:20 am


Visibility: 10 mi

Pressure: 30.01 "Hg

Humidity: 77%

Dew Point: 54 °F

Location of LahtiLocation

Past Weather in Lahti — Graph

°F

Lahti Temperature Yesterday

Maximum temperature yesterday: 75 °F (at 6:50 pm)
Minimum temperature yesterday: 59 °F (at 3:20 am)
Average temperature yesterday: 66 °F

High & Low Weather Summary for the Past Weeks

 TemperatureHumidityPressure
High75 °F (Jul 20, 6:50 pm)100% (Jul 6, 7:20 am)30.01 "Hg (Jul 6, 7:20 am)
Low45 °F (Jul 14, 2:20 am)34% (Jul 12, 2:50 pm)29.33 "Hg (Jul 5, 11:20 pm)
Average59 °F70%29.73 "Hg
* Reported Jul 5 11:20 pm — Jul 20 11:50 pm, Lahti. Weather by CustomWeather, © 2019

Note: Actual official high and low records may vary slightly from our data, if they occured in-between our weather recording intervals... More about our weather records

Advertising

Lahti Weather History for the Previous 24 Hours

Scroll right to see more
 ConditionsComfort  
Time TempWeatherWind HumidityBarometerVisibility
11:50 pm
Sat, Jul 20
63 °FClear.5 mph73%30.01 "Hg10 mi
11:20 pm61 °FPassing clouds.3 mph77%30.01 "HgN/A
10:50 pm64 °FClear.5 mph68%30.01 "Hg10 mi
10:20 pm64 °FClear.6 mph68%29.98 "Hg10 mi
9:50 pm66 °FSunny.6 mph64%29.98 "Hg10 mi
9:20 pm68 °FSunny.8 mph64%29.98 "Hg10 mi
8:50 pm72 °FSunny.6 mph53%29.98 "Hg10 mi
8:20 pm72 °FSunny.5 mph50%29.98 "Hg10 mi
7:50 pm73 °FPassing clouds.5 mph44%29.98 "HgN/A
7:20 pm73 °FPassing clouds.8 mph47%29.98 "HgN/A
6:50 pm75 °FSunny.2 mph41%29.95 "Hg10 mi
6:20 pm73 °FPassing clouds.7 mph44%29.95 "HgN/A
5:50 pm73 °FPassing clouds.8 mph44%29.95 "HgN/A
5:20 pm73 °FPassing clouds.6 mph44%29.95 "HgN/A
4:50 pm73 °FSunny.9 mph44%29.95 "Hg10 mi
4:20 pm73 °FPassing clouds.7 mph44%29.95 "HgN/A
3:50 pm73 °FPassing clouds.8 mph47%29.95 "HgN/A
2:50 pm72 °FPartly sunny.7 mph53%29.95 "HgN/A
2:20 pm72 °FScattered clouds.8 mph50%29.95 "HgN/A
1:50 pm72 °FScattered clouds.9 mph47%29.95 "HgN/A
1:20 pm70 °FPassing clouds.10 mph53%29.95 "HgN/A
12:50 pm68 °FPassing clouds.12 mph56%29.95 "HgN/A
12:20 pm66 °FPassing clouds.10 mph60%29.95 "HgN/A
11:50 am66 °FBroken clouds.10 mph64%29.92 "HgN/A
11:20 am66 °FPartly sunny.10 mph64%29.92 "HgN/A
10:50 am66 °FPartly sunny.10 mph64%29.92 "HgN/A
10:20 am66 °FBroken clouds.12 mph64%29.92 "HgN/A
9:50 am64 °FPassing clouds.10 mph73%29.92 "HgN/A
9:20 am63 °FPassing clouds.8 mph77%29.89 "HgN/A
8:50 am63 °FSunny.9 mph77%29.89 "Hg10 mi
8:20 am61 °FSunny.8 mph83%29.89 "Hg10 mi
7:50 am61 °FPassing clouds.8 mph83%29.89 "HgN/A
7:20 am61 °FPassing clouds.9 mph83%29.86 "HgN/A
6:50 am59 °FBroken clouds.8 mph88%29.86 "HgN/A
6:20 am59 °FPartly sunny.8 mph88%29.86 "HgN/A
5:50 am59 °FMore clouds than sun.8 mph88%29.86 "HgN/A
5:20 am59 °FScattered showers. Overcast.7 mph88%29.86 "HgN/A
4:50 am59 °FScattered showers. Overcast.7 mph88%29.86 "HgN/A
4:20 am59 °FScattered showers. Overcast.7 mph88%29.86 "HgN/A
3:50 am59 °FClear.7 mph82%29.86 "Hg10 mi
3:20 am59 °FClear.7 mph82%29.86 "Hg10 mi
2:50 am61 °FClear.7 mph83%29.83 "Hg10 mi
2:20 am61 °FClear.8 mph83%29.83 "Hg10 mi
1:50 am61 °FClear.9 mph83%29.83 "Hg10 mi
1:20 am61 °FPartly cloudy.9 mph83%29.83 "HgN/A
Weather by CustomWeather, © 2019

See weather overview